This is the latest recevied weather packets stored in our database for station/object SP9MUF-14. If no packets are shown the sender has not sent any weather packets the latest 10 day(s).
| Time | Temp. | Humidity | Pressure | Rain* | Wind** | Luminosity | Snow |
|---|---|---|---|---|---|---|---|
| 1787735266 | 17.78° C | 69% | 1020.7 hPa | 0 mm | - | 377 W/m² | - |
| 1787734964 | 17.78° C | 70% | 1020.8 hPa | 0 mm | - | 297 W/m² | - |
| 1787734662 | 17.78° C | 72% | 1020.9 hPa | 0 mm | - | 232 W/m² | - |
| 1787734359 | 17.78° C | 73% | 1020.9 hPa | 0 mm | - | 150 W/m² | - |
| 1787734057 | 17.78° C | 73% | 1020.8 hPa | 0 mm | - | 130 W/m² | - |
| 1787733755 | 17.78° C | 73% | 1020.8 hPa | 0 mm | - | 192 W/m² | - |
| 1787733452 | 16.67° C | 72% | 1020.8 hPa | 0 mm | - | 225 W/m² | - |
| 1787733150 | 16.67° C | 73% | 1020.8 hPa | 0 mm | - | 199 W/m² | - |
| 1787732848 | 16.67° C | 72% | 1020.8 hPa | 0 mm | - | 162 W/m² | - |
| 1787732243 | 16.67° C | 73% | 1020.9 hPa | 0 mm | - | 205 W/m² | - |
| 1787730733 | 15.56° C | 76% | 1020.7 hPa | 0 mm | - | 163 W/m² | - |
| 1787730430 | 16.67° C | 76% | 1020.7 hPa | 0 mm | - | 159 W/m² | - |
| 1787730130 | 16.67° C | 76% | 1020.6 hPa | 0 mm | - | 146 W/m² | - |
| 1787729523 | 15.56° C | 78% | 1020.5 hPa | 0 mm | - | 152 W/m² | - |
| 1787729221 | 15.56° C | 77% | 1020.5 hPa | 0 mm | - | 162 W/m² | - |
| 1787728919 | 15.56° C | 77% | 1020.5 hPa | 0 mm | - | 144 W/m² | - |
| 1787728616 | 15.56° C | 79% | 1020.5 hPa | 0 mm | - | 129 W/m² | - |
| 1787728012 | 15.56° C | 79% | 1020.4 hPa | 0 mm | - | 93 W/m² | - |
| 1787727710 | 15.56° C | 80% | 1020.4 hPa | 0 mm | - | 95 W/m² | - |
| 1787727407 | 15.56° C | 80% | 1020.3 hPa | 0 mm | - | 93 W/m² | - |
| 1787726501 | 15.56° C | 80% | 1020.2 hPa | 0 mm | - | 96 W/m² | - |
| 1787726198 | 15.56° C | 80% | 1021.5 hPa | 0 mm | - | 119 W/m² | - |
| 1787725896 | 15.56° C | 81% | 1020.2 hPa | 0 mm | - | 134 W/m² | - |
| 1787725594 | 15° C | 82% | 1020.3 hPa | 0 mm | - | 122 W/m² | - |
| 1787725295 | 15° C | - | - | 0 mm | - | - | - |
* Rain latest hour (hover to see other rain measurements)
** Current wind speed in m/s (hover to see current wind gust speed)